Location: Aldenham
(51.6667°N, 0.3500°W)
Time: 01:46:17
(UTC+00:00)

Altair - Pass Details

Date: 19 February 2026
Orbit: 1502 x 1682 km, 47.2° (Epoch: 10 March)

Event Time Altitude Azimuth Distance (km) Brightness Sun altitude
Rises 10:46:44 0° 286° (WNW) 4,722 9.7 24.3°
Reaches altitude 10° 10:50:14 10° 277° (W) 3,762 9.3 24.5°
Maximum altitude 10:58:04 30° 221° (SW) 2,573 9.3 25.0°
Drops below altitude 10° 11:06:09 10° 165° (SSE) 3,869 11.5 25.4°
Sets 11:09:49 0° 156° (SSE) 4,876 11.5 25.6°
